Starlink 3635

operational
NORAD ID: 51981 Int'l Des: 2022-025 Owner: SPXS Country: US Constellation: starlink
LEOCIRCULAR

About Starlink 3635

Description loading...

Live Position

Loading 3D Globe...

Upcoming Passes

Altitude History

Altitude vs Time

uPlot chart will show altitude changes over time

Two-Line Element Set

1 51981U 22025AB 25260.86121152 .00002485 00000-0 17411-3 0 9992
2 51981 53.2179 94.9804 0001615 81.6490 278.4686 15.08855110194962
Epoch: Sep 17, 2025 • Age: 20 hours

Current Status

Altitude 542.0 km
Velocity 7.59 km/s
Sub-Earth Point -6.74°S, 29.8°E
Launch Date Mar 9, 2022
Age 3.5 years
Type internet

Technical Details

Classification Payload
Mass 297.00 kg
Dry Mass 275.00 kg
Total Mass 297.00 kg
Length 0.20 m
Diameter 2.80 m
Span 9.00 m
Shape Box + pan
Manufacturer SPXS
Bus Type Starlink
Phase Status In Orbit
Owner/State SPXS/US

Large Constellations

Loading constellations...